Regional Weather Roundup
Issued by NWS

Home | Current Version | Previous Version | Text Only | Print | Product List | Glossary On
Versions: 1 2 3 4 5 6 7 8 9 10 11 12 13 14 15 16 17 18 19 20 21 22 23 24 25 26 27 28 29 30 31 32 33 34 35 36 37 38 39 40 41 42 43 44 45 46 47 48 49 50
465
ASUS44 KLIX 230013
RWRLA
LOUISIANA WEATHER ROUNDUP
NATIONAL WEATHER SERVICE NEW ORLEANS LA
600 PM CST WED FEB 22 2017

NOTE: "FAIR" INDICATES FEW OR NO CLOUDS BELOW 12,000 FEET WITH NO
      SIGNIFICANT WEATHER AND/OR OBSTRUCTIONS TO VISIBILITY.
      SKY/WX - SKY CONDITION AND SIGNIFICANT WEATHER.
      TMP - AIR TEMPERATURE.    DP   - DEWPOINT TEMPERATURE.
      RH  - RELATIVE HUMIDITY.  PRES - PRESSURE.
      HX  - HEAT INDEX.         WCI  - WIND CHILL INDEX.

*  THESE STATIONS ARE NOT NWS OR FAA STATIONS AND ARE NOT UNDER
   NWS QUALITY CONTROL.

LAZ040-048-061>063-065-066-069-230100-
SOUTHEAST LOUISIANA

CITY           SKY/WX    TMP DP  RH WIND       PRES   REMARKS
N.O. AUDUBON   NOT AVBL
N.O. INTL ARPT PTCLDY    72  54  53 N3        29.78S
6HR MIN TEMP:  69; 6HR MAX TEMP:  75;

N.O. LAKEFRONT CLEAR     68  62  81 W5        29.79R
6HR MIN TEMP:  67; 6HR MAX TEMP:  71;

N.O. DOWNTOWN*   N/A     72  54  53 N3        29.79R
6HR MIN TEMP:  69; 6HR MAX TEMP:  75;

RESERVE*       FAIR      73  53  49 CALM      29.79S
6HR MIN TEMP:  72; 6HR MAX TEMP:  77;

SLIDELL        CLEAR     70  53  54 N5        29.78R
6HR MIN TEMP:  70; 6HR MAX TEMP:  77;

BATON ROUGE    CLEAR     69  57  65 W8        29.80R
6HR MIN TEMP:  69; 6HR MAX TEMP:  77;

BOOTHVILLE     CLEAR     64  60  87 NE3       29.79R
6HR MIN TEMP:  64; 6HR MAX TEMP:  70;

BELLE CHASSE   PTCLDY    71  54  54 N3        29.78R
BOGALUSA*      FAIR      71  53  52 NE3       29.80S
6HR MIN TEMP:  71; 6HR MAX TEMP:  77;

GALLIANO*      CLEAR     66  52  61 N5        29.79S
6HR MIN TEMP:  66; 6HR MAX TEMP:  74;

NEW ROADS*     FAIR      67  57  71 NW5       29.82R
6HR MIN TEMP:  66; 6HR MAX TEMP:  71;

GONZALES*      FAIR      72  52  50 N3        29.79R
6HR MIN TEMP:  70; 6HR MAX TEMP:  75;

HAMMOND*       CLEAR     70  52  52 CALM      29.79S
HOUMA*         CLEAR     70  54  56 N5        29.79R
PORT FOURCHON* CLEAR     70  55  60 NW7       29.79S

$$

LAZ041-044-053-054-230100-
SOUTHWEST LOUISIANA

CITY           SKY/WX    TMP DP  RH WIND       PRES   REMARKS
LAKE CHARLES   CLEAR     70  58  65 SE7       29.81S
6HR MIN TEMP:  70; 6HR MAX TEMP:  75;

LAFAYETTE      CLEAR     70  56  61 NE6       29.81S
6HR MIN TEMP:  70; 6HR MAX TEMP:  76;

PATTERSON      CLEAR     71  53  52 N3        29.81R
6HR MIN TEMP:  68; 6HR MAX TEMP:  74;

SALT POINT       N/A     66  60  81 W5        29.80R
6HR MIN TEMP:  66; 6HR MAX TEMP:  69;

NEW IBERIA     CLEAR     68  53  58 N6        29.81S
6HR MIN TEMP:  68; 6HR MAX TEMP:  74;

CHENAULT AIRPK CLEAR     68  59  73 E6        29.81

$$

LAZ027-028-230100-
CENTRAL LOUISIANA

CITY           SKY/WX    TMP DP  RH WIND       PRES   REMARKS
FORT POLK      CLEAR     71  57  61 SE5       29.80S
6HR MIN TEMP:  65; 6HR MAX TEMP:  74;

ALEXANDRIA INT CLEAR     69  56  62 S3        29.79F
6HR MIN TEMP:  66; 6HR MAX TEMP:  73;

ALEXANDRIA     CLEAR     66  57  72 E3        29.81S
6HR MIN TEMP:  66; 6HR MAX TEMP:  75;


$$

LAZ001-002-230100-
NORTHWEST LOUISIANA

CITY           SKY/WX    TMP DP  RH WIND       PRES   REMARKS
SHREVEPORT     PTCLDY    69  56  62 E6        29.79R
6HR MIN TEMP:  69; 6HR MAX TEMP:  75;

BARKSDALE AFB  CLEAR     67  55  66 SE5       29.80R
6HR MIN TEMP:  65; 6HR MAX TEMP:  72;

DTN SHREVEPORT CLEAR     68  55  63 SE5       29.80R
6HR MIN TEMP:  65; 6HR MAX TEMP:  73;


$$

LAZ014-016-230100-
NORTHEAST LOUISIANA

CITY           SKY/WX    TMP DP  RH WIND       PRES   REMARKS
MONROE         CLEAR     68  55  63 S6        29.81S
6HR MIN TEMP:  64; 6HR MAX TEMP:  72;

TALLULAH       CLEAR     66  55  67 CALM      29.80S
6HR MIN TEMP:  64; 6HR MAX TEMP:  73;


$$





USA.gov is the U.S. government's official web portal to all federal, state and local government web resources and services.